Location: Bannatyne
(13.0833°N, 59.5333°W)
Time: 17:57:09
(UTC+00:00)

Vanguard 3 - Pass Details

Date: 02 February 2020
Orbit: 508 x 3263 km, 33.3° (Epoch: 25 February)

Event Time Altitude Azimuth Distance (km) Brightness Sun altitude
Rises 18:45:33 0° 263° (W) 5,401 12.0 41.7°
Reaches altitude 10° 18:48:48 10° 269° (W) 4,726 11.8 41.0°
Maximum altitude 19:02:55 50° 341° (NNW) 3,495 10.7 38.2°
Drops below altitude 10° 19:22:03 10° 53° (NE) 6,181 11.2 34.3°
Sets 19:27:08 0° 58° (ENE) 7,104 11.4 33.3°
